GW4940 Weather Reports


time (UTC)temp
C
wind
direction
speed
KPH
gust
KPH
rain 1hr
cm
rain 24hr
cm
rain mn
cm
humidity
%
barometer
mb
20260510071602 8 19 0.0 0.0 0.00 0.00 0.00 99 1012.6
20260510071101 8 19 0.0 0.0 0.00 0.00 0.00 99 1012.5
20260510070557 8 314 0.0 0.0 0.00 0.00 0.00 99 1012.8
20260510070054 8 70 0.0 0.0 0.00 0.00 0.00 99 1012.5
20260510065550 8 3 0.0 0.0 0.00 0.00 0.00 99 1012.6
20260510065047 8 292 0.0 0.0 0.00 0.00 0.00 99 1012.5
20260510064543 8 57 0.0 0.0 0.00 0.00 0.00 99 1012.6
20260510064040 8 57 0.0 0.0 0.00 0.00 0.00 99 1012.6
20260510063537 8 57 0.0 0.0 0.00 0.00 0.00 99 1012.6
20260510063034 8 57 0.0 0.0 0.00 0.00 0.00 99 1012.8
20260510062530 8 58 0.0 0.0 0.00 0.00 0.00 99 1012.8
20260510062025 8 77 0.0 0.0 0.00 0.00 0.00 99 1012.8
20260510061522 8 93 0.0 0.0 0.00 0.00 0.00 99 1012.9
20260510061018 8 94 0.0 0.0 0.00 0.00 0.00 99 1012.8
20260510060515 8 114 0.0 0.0 0.00 0.00 0.00 99 1012.9
20260510060011 8 109 0.0 0.0 0.00 0.00 0.00 99 1012.9
20260510055507 8 109 0.0 0.0 0.00 0.00 0.00 99 1012.8
20260510055006 8 117 0.0 0.0 0.00 0.00 0.00 99 1012.8
20260510054501 8 123 0.0 0.0 0.00 0.00 0.00 99 1012.9
20260510053956 8 123 0.0 0.0 0.00 0.00 0.00 99 1013.0
20260510053451 8 124 0.0 0.0 0.00 0.00 0.00 98 1013.0
20260510052948 8 116 0.0 0.0 0.00 0.00 0.00 98 1013.1
20260510052444 8 116 0.0 0.0 0.00 0.00 0.00 98 1013.2
20260510051940 8 116 0.0 0.0 0.00 0.00 0.00 98 1013.1
20260510051436 9 124 0.0 0.0 0.00 0.00 0.00 98 1013.2
20260510050933 9 133 0.0 0.0 0.00 0.00 0.00 98 1013.2
20260510050430 8 273 0.0 0.0 0.00 0.00 0.00 98 1013.2
20260510045927 8 273 0.0 0.0 0.00 0.00 0.00 98 1013.3
20260510045424 9 273 0.0 0.0 0.00 0.00 0.00 98 1013.2
20260510044921 9 274 0.0 0.0 0.00 0.00 0.00 98 1012.9
20260510044418 9 273 0.0 0.0 0.00 0.00 0.00 98 1013.0
20260510043915 8 273 0.0 0.0 0.00 0.00 0.00 98 1012.9
20260510043410 9 273 0.0 0.0 0.00 0.00 0.00 98 1012.9
20260510042909 8 273 0.0 0.0 0.00 0.00 0.00 98 1012.6
20260510042404 9 273 0.0 0.0 0.00 0.00 0.00 98 1013.0
20260510041900 9 279 0.0 0.0 0.00 0.00 0.00 98 1012.9
20260510041358 9 279 0.0 0.0 0.00 0.00 0.00 98 1012.9
20260510040855 9 272 0.0 0.0 0.00 0.00 0.00 98 1012.8
20260510040352 9 272 0.0 0.0 0.00 0.00 0.00 98 1012.6
20260510035847 9 267 0.0 0.0 0.00 0.00 0.00 98 1012.6
20260510035343 9 261 0.0 0.0 0.00 0.00 0.00 97 1012.5
20260510034839 9 261 0.0 0.0 0.00 0.00 0.00 97 1012.8
20260510034337 9 261 0.0 0.0 0.00 0.00 0.00 97 1012.8
20260510033833 9 261 0.0 0.0 0.00 0.00 0.00 97 1012.6
20260510033330 9 261 0.0 0.0 0.00 0.00 0.00 97 1012.8
20260510032827 9 262 0.0 0.0 0.00 0.00 0.00 97 1012.4
20260510032324 10 262 0.0 0.0 0.00 0.00 0.00 97 1012.5
20260510031819 10 262 0.0 1.6 0.00 0.00 0.00 97 1012.4
20260510031315 10 270 0.0 0.0 0.00 0.00 0.00 97 1012.3
20260510030809 10 270 0.0 0.0 0.00 0.00 0.00 97 1012.3
20260510030306 10 270 0.0 0.0 0.00 0.00 0.00 97 1012.2
20260510025803 10 270 0.0 0.0 0.00 0.00 0.00 96 1012.0
20260510025301 10 270 0.0 0.0 0.00 0.00 0.00 96 1012.1
20260510024757 10 270 0.0 0.0 0.00 0.00 0.00 96 1012.2
20260510024254 10 270 0.0 0.0 0.00 0.00 0.00 96 1012.2
20260510023750 10 270 0.0 0.0 0.00 0.00 0.00 96 1012.3
20260510023247 10 270 0.0 0.0 0.00 0.00 0.00 96 1012.2
20260510022743 10 270 0.0 0.0 0.00 0.00 0.00 95 1012.1
20260510022243 10 270 0.0 0.0 0.00 0.00 0.00 95 1012.0
20260510021743 10 270 0.0 0.0 0.00 0.00 0.00 95 1012.1
20260510021241 10 270 0.0 0.0 0.00 0.00 0.00 95 1012.0
20260510020736 11 270 0.0 0.0 0.00 0.00 0.00 95 1011.7
20260510020231 11 270 0.0 0.0 0.00 0.00 0.00 95 1011.8
20260510015728 11 270 0.0 0.0 0.00 0.00 0.00 94 1011.7
20260510015224 11 270 0.0 0.0 0.00 0.00 0.00 94 1011.7
20260510014719 11 270 0.0 0.0 0.00 0.00 0.00 93 1011.4
20260510014217 11 270 0.0 0.0 0.00 0.00 0.00 93 1011.3
20260510013712 11 270 0.0 0.0 0.00 0.00 0.00 93 1011.3
20260510013208 11 270 0.0 0.0 0.00 0.00 0.00 92 1011.4
20260510012707 11 270 0.0 0.0 0.00 0.00 0.00 92 1011.2
20260510012203 12 270 0.0 0.0 0.00 0.00 0.00 92 1011.2
20260510011658 12 270 0.0 0.0 0.00 0.00 0.00 91 1011.2
20260510011154 12 270 0.0 0.0 0.00 0.00 0.00 91 1011.2
20260510010650 12 261 0.0 0.0 0.00 0.00 0.00 90 1011.1
20260510010147 13 261 0.0 0.0 0.00 0.00 0.00 89 1011.1
20260510005643 13 261 0.0 0.0 0.00 0.00 0.00 88 1010.8
20260510005140 13 261 0.0 0.0 0.00 0.00 0.00 88 1010.9
20260510004639 13 261 0.0 0.0 0.00 0.00 0.00 86 1010.9
20260510004136 14 236 0.0 0.0 0.00 0.00 0.00 85 1010.7
20260510003633 14 265 0.0 0.0 0.00 0.00 0.00 84 1010.7
20260510003129 14 234 0.0 0.0 0.00 0.00 0.00 83 1010.7
20260510002629 15 261 0.0 0.0 0.00 0.00 0.00 83 1010.7
20260510002126 15 271 0.0 1.6 0.00 0.00 0.00 80 1010.6
20260510001623 15 174 1.6 1.6 0.00 0.00 0.00 80 1010.6
20260510001122 16 269 0.0 1.6 0.00 0.00 0.00 78 1010.5
20260510000622 16 282 0.0 0.0 0.00 0.00 0.00 76 1010.2
20260510000119 16 273 0.0 1.6 0.00 0.00 0.00 72 1010.2
20260509235615 17 278 1.6 1.6 0.00 0.00 0.00 73 1010.1
20260509235112 17 282 0.0 1.6 0.00 0.00 0.00 68 1010.2
20260509234608 17 288 0.0 0.0 0.00 0.00 0.00 69 1010.0
20260509234106 18 108 0.0 0.0 0.00 0.00 0.00 63 1010.2
20260509233604 18 255 0.0 3.2 0.00 0.00 0.00 65 1010.2
20260509233101 18 81 4.8 4.8 0.00 0.00 0.00 63 1010.0
20260509232557 19 259 1.6 6.4 0.00 0.00 0.00 61 1009.9
20260509232054 19 337 1.6 3.2 0.00 0.00 0.00 60 1010.0
20260509231550 19 310 1.6 6.4 0.00 0.00 0.00 61 1009.8
20260509231048 19 12 0.0 3.2 0.00 0.00 0.00 60 1010.1
20260509230545 19 319 3.2 4.8 0.00 0.00 0.00 59 1009.9
20260509230042 19 54 3.2 4.8 0.00 0.00 0.00 60 1009.9
20260509225537 19 79 0.0 1.6 0.00 0.00 0.00 60 1010.0
20260509225033 20 99 1.6 3.2 0.00 0.00 0.00 58 1010.0
20260509224529 20 2 3.2 4.8 0.00 0.00 0.00 57 1010.2
20260509224026 21 322 0.0 0.0 0.00 0.00 0.00 55 1010.3
20260509223523 20 323 0.0 3.2 0.00 0.00 0.00 56 1010.4
20260509223021 21 283 3.2 9.7 0.00 0.00 0.00 56 1010.4
20260509222516 21 119 3.2 6.4 0.00 0.00 0.00 54 1010.3
20260509222012 21 282 3.2 3.2 0.00 0.00 0.00 54 1010.3
20260509221508 20 277 1.6 3.2 0.00 0.00 0.00 59 1010.3
20260509221004 20 315 1.6 4.8 0.00 0.00 0.00 57 1010.3
20260509220500 21 343 6.4 9.7 0.00 0.00 0.00 56 1010.2
20260509215956 21 285 3.2 4.8 0.00 0.00 0.00 55 1010.3
20260509215452 21 324 8.0 9.7 0.00 0.00 0.00 54 1010.5
20260509214950 21 143 4.8 11.3 0.00 0.00 0.00 54 1010.4
20260509214447 20 358 6.4 9.7 0.00 0.00 0.00 54 1010.6
20260509213943 20 150 6.4 12.9 0.00 0.00 0.00 57 1010.5
20260509213439 20 51 6.4 9.7 0.00 0.00 0.00 59 1010.5
20260509212937 21 269 1.6 4.8 0.00 0.00 0.00 56 1010.3
20260509212434 20 302 1.6 4.8 0.00 0.00 0.00 57 1010.5
20260509211930 20 290 1.6 1.6 0.00 0.00 0.00 61 1010.5
20260509211426 19 313 3.2 3.2 0.00 0.00 0.00 62 1010.5
20260509210922 20 277 0.0 4.8 0.00 0.00 0.00 58 1010.4
20260509210420 20 1 1.6 6.4 0.00 0.00 0.00 59 1010.4
20260509205915 21 33 1.6 4.8 0.00 0.00 0.00 56 1010.4
20260509205414 21 255 4.8 9.7 0.00 0.00 0.00 54 1010.4
20260509204911 21 318 0.0 6.4 0.00 0.00 0.00 61 1010.3
20260509204408 21 330 3.2 6.4 0.00 0.00 0.00 55 1010.2
20260509203904 21 276 6.4 9.7 0.00 0.00 0.00 58 1010.0
20260509203400 21 287 3.2 12.9 0.00 0.00 0.00 56 1010.4
20260509202858 20 321 1.6 4.8 0.00 0.00 0.00 56 1010.3
20260509202353 20 320 4.8 6.4 0.00 0.00 0.00 60 1010.3
20260509201848 20 259 6.4 11.3 0.00 0.00 0.00 56 1010.4
20260509201345 20 111 4.8 4.8 0.00 0.00 0.00 56 1010.4
20260509200842 20 228 4.8 4.8 0.00 0.00 0.00 56 1010.4
20260509200336 20 11 0.0 6.4 0.00 0.00 0.00 58 1010.6
20260509195834 20 230 4.8 6.4 0.00 0.00 0.00 56 1010.6
20260509195333 20 277 6.4 9.7 0.00 0.00 0.00 56 1010.7
20260509194833 20 143 0.0 9.7 0.00 0.00 0.00 56 1010.8
20260509194330 20 247 3.2 12.9 0.00 0.00 0.00 56 1010.8
20260509193827 21 270 6.4 11.3 0.00 0.00 0.00 56 1010.9
20260509193326 20 265 6.4 11.3 0.00 0.00 0.00 57 1010.7
20260509192823 20 283 6.4 9.7 0.00 0.00 0.00 57 1010.8
20260509192319 20 320 4.8 4.8 0.00 0.00 0.00 56 1010.7
20260509191814 20 320 3.2 6.4 0.00 0.00 0.00 58 1010.9
20260509191310 20 185 3.2 4.8 0.00 0.00 0.00 58 1010.8
20260509190806 19 290 6.4 11.3 0.00 0.00 0.00 58 1010.7
20260509190304 19 315 1.6 9.7 0.00 0.00 0.00 61 1010.6
20260509185801 19 325 1.6 4.8 0.00 0.00 0.00 58 1010.6
20260509185257 19 272 3.2 4.8 0.00 0.00 0.00 58 1010.7
20260509184754 20 162 1.6 9.7 0.00 0.00 0.00 56 1010.7
20260509184252 19 289 4.8 9.7 0.00 0.00 0.00 58 1010.7
20260509183748 19 30 3.2 9.7 0.00 0.00 0.00 58 1010.8
20260509183244 18 261 8.0 12.9 0.00 0.00 0.00 57 1010.7
20260509182739 18 283 3.2 11.3 0.00 0.00 0.00 59 1010.6
20260509182237 19 313 6.4 6.4 0.00 0.00 0.00 56 1010.7
20260509181734 18 293 9.7 11.3 0.00 0.00 0.00 56 1010.8
20260509181231 18 237 1.6 11.3 0.00 0.00 0.00 56 1010.8
20260509180728 18 259 1.6 4.8 0.00 0.00 0.00 56 1010.8
20260509180225 18 108 1.6 4.8 0.00 0.00 0.00 56 1010.6
20260509175721 19 288 6.4 9.7 0.00 0.00 0.00 54 1010.6
20260509175218 19 285 1.6 4.8 0.00 0.00 0.00 58 1010.8
20260509174714 18 57 0.0 6.4 0.00 0.00 0.00 54 1010.7
20260509174209 18 63 0.0 3.2 0.00 0.00 0.00 55 1010.9
20260509173705 18 61 1.6 3.2 0.00 0.00 0.00 55 1010.7
20260509173201 18 50 0.0 9.7 0.00 0.00 0.00 57 1010.9
20260509172657 18 255 3.2 4.8 0.00 0.00 0.00 55 1011.0
20260509172154 18 286 6.4 9.7 0.00 0.00 0.00 56 1011.0
20260509171649 18 66 3.2 6.4 0.00 0.00 0.00 56 1011.1
20260509171146 18 279 1.6 6.4 0.00 0.00 0.00 58 1011.0
20260509170643 18 263 3.2 4.8 0.00 0.00 0.00 56 1011.2
20260509170138 18 260 1.6 3.2 0.00 0.00 0.00 53 1011.3
20260509165637 18 312 0.0 4.8 0.00 0.00 0.00 58 1011.1
20260509165133 18 95 0.0 3.2 0.00 0.00 0.00 56 1011.2
20260509164629 17 142 0.0 1.6 0.00 0.00 0.00 55 1011.0
20260509164125 17 319 3.2 4.8 0.00 0.00 0.00 56 1011.3
20260509163623 17 277 3.2 4.8 0.00 0.00 0.00 58 1011.2
20260509163118 17 299 3.2 9.7 0.00 0.00 0.00 58 1011.3
20260509162615 17 340 1.6 6.4 0.00 0.00 0.00 58 1011.1
20260509162111 17 229 3.2 9.7 0.00 0.00 0.00 57 1011.4
20260509161603 17 284 4.8 4.8 0.00 0.00 0.00 62 1011.3
20260509161102 16 274 1.6 3.2 0.00 0.00 0.00 65 1011.0
20260509160558 16 322 1.6 3.2 0.00 0.00 0.00 62 1011.2
20260509160054 16 264 1.6 4.8 0.00 0.00 0.00 63 1011.1
20260509155550 16 313 4.8 4.8 0.00 0.00 0.00 63 1011.0
20260509155047 16 326 1.6 3.2 0.00 0.00 0.00 65 1011.0
20260509154543 16 301 3.2 3.2 0.00 0.00 0.00 65 1011.1
20260509154040 16 317 0.0 1.6 0.00 0.00 0.00 66 1011.2
20260509153537 16 88 1.6 4.8 0.00 0.00 0.00 68 1011.3
20260509153034 16 45 0.0 0.0 0.00 0.00 0.00 68 1011.1
20260509152530 16 85 4.8 4.8 0.00 0.00 0.00 67 1011.1
20260509152027 16 105 3.2 6.4 0.00 0.00 0.00 68 1011.3
20260509151523 16 89 3.2 6.4 0.00 0.00 0.00 66 1011.2
20260509151021 16 97 1.6 4.8 0.00 0.00 0.00 67 1011.2
20260509150518 16 0 0.0 1.6 0.00 0.00 0.00 71 1011.3
20260509150017 16 107 3.2 4.8 0.00 0.00 0.00 70 1011.3
20260509145512 16 81 0.0 4.8 0.00 0.00 0.00 72 1011.5
20260509145007 16 64 0.0 1.6 0.00 0.00 0.00 71 1011.6
20260509144505 16 95 1.6 4.8 0.00 0.00 0.00 69 1011.7
20260509144002 15 340 0.0 1.6 0.00 0.00 0.00 70 1011.6
20260509143458 15 319 0.0 1.6 0.00 0.00 0.00 71 1011.6
20260509142955 15 11 0.0 1.6 0.00 0.00 0.00 70 1011.7
20260509142452 15 316 3.2 3.2 0.00 0.00 0.00 71 1011.4
20260509141947 15 181 0.0 1.6 0.00 0.00 0.00 69 1011.5
20260509141444 16 48 0.0 1.6 0.00 0.00 0.00 68 1011.3
20260509140941 16 351 0.0 1.6 0.00 0.00 0.00 67 1011.3
20260509140437 16 248 0.0 3.2 0.00 0.00 0.00 65 1011.3
20260509135936 15 72 1.6 3.2 0.00 0.00 0.00 68 1011.4
20260509135433 15 153 0.0 3.2 0.00 0.00 0.00 67 1011.2
20260509134930 15 179 0.0 3.2 0.00 0.00 0.00 71 1011.3
20260509134427 15 262 0.0 1.6 0.00 0.00 0.00 71 1011.4
20260509133925 15 217 0.0 4.8 0.00 0.00 0.00 71 1011.6
20260509133421 14 153 6.4 6.4 0.00 0.00 0.00 72 1011.3
20260509132919 14 238 0.0 0.0 0.00 0.00 0.00 75 1011.6
20260509132417 13 236 0.0 0.0 0.00 0.00 0.00 80 1011.6
20260509131914 13 236 0.0 0.0 0.00 0.00 0.00 82 1011.7
20260509131411 13 233 0.0 0.0 0.00 0.00 0.00 83 1011.5
20260509130908 13 233 0.0 0.0 0.00 0.00 0.00 83 1011.9
20260509130403 13 236 0.0 0.0 0.00 0.00 0.00 82 1012.0
20260509125900 13 236 0.0 0.0 0.00 0.00 0.00 81 1012.1
20260509125356 13 235 0.0 0.0 0.00 0.00 0.00 81 1012.1
20260509124852 12 236 0.0 0.0 0.00 0.00 0.00 83 1012.1
20260509124350 12 236 0.0 0.0 0.00 0.00 0.00 86 1012.1
20260509123848 12 232 0.0 0.0 0.00 0.00 0.00 87 1011.8
20260509123345 12 236 0.0 0.0 0.00 0.00 0.00 86 1011.9
20260509122840 12 225 0.0 0.0 0.00 0.00 0.00 88 1012.0
20260509122337 11 236 0.0 0.0 0.00 0.00 0.00 88 1011.9
20260509121834 11 236 0.0 0.0 0.00 0.00 0.00 89 1011.9
20260509121331 11 236 0.0 0.0 0.00 0.00 0.00 89 1011.9
20260509120830 11 236 0.0 0.0 0.00 0.00 0.00 91 1012.0
20260509120327 11 236 0.0 0.0 0.00 0.00 0.00 92 1011.8
20260509115825 10 236 0.0 0.0 0.00 0.00 0.00 92 1011.9
20260509115322 10 236 0.0 0.0 0.00 0.00 0.00 93 1011.8
20260509114820 10 236 0.0 0.0 0.00 0.00 0.00 93 1011.7
20260509114318 10 236 0.0 0.0 0.00 0.00 0.00 93 1011.7
20260509113817 10 236 0.0 1.6 0.00 0.00 0.00 93 1011.8
20260509113313 10 236 0.0 0.0 0.00 0.00 0.00 93 1011.9
20260509112810 10 236 0.0 0.0 0.00 0.00 0.00 93 1011.7
20260509112308 10 236 0.0 0.0 0.00 0.00 0.00 94 1011.7
20260509111804 10 236 0.0 0.0 0.00 0.00 0.00 94 1011.6
20260509111301 10 236 0.0 0.0 0.00 0.00 0.00 94 1011.6
20260509110759 10 236 0.0 0.0 0.00 0.00 0.00 94 1011.9
20260509110255 10 236 0.0 0.0 0.00 0.00 0.00 94 1011.9
20260509105753 10 236 0.0 0.0 0.00 0.00 0.00 94 1011.7
20260509105251 10 236 0.0 0.0 0.00 0.00 0.00 94 1011.9
20260509104747 10 236 0.0 0.0 0.00 0.00 0.00 95 1011.7
20260509104244 10 236 0.0 0.0 0.00 0.00 0.00 95 1011.7
20260509103743 10 236 0.0 0.0 0.00 0.00 0.00 95 1011.6
20260509103239 10 236 0.0 0.0 0.00 0.00 0.00 95 1011.6
20260509102738 10 236 0.0 0.0 0.00 0.00 0.00 95 1011.6
20260509102234 10 236 0.0 0.0 0.00 0.00 0.00 95 1011.4
20260509101731 10 236 0.0 0.0 0.00 0.00 0.00 94 1011.4
20260509101227 10 236 0.0 0.0 0.00 0.00 0.00 94 1011.3
20260509100724 10 236 0.0 0.0 0.00 0.00 0.00 93 1011.2
20260509100222 10 236 0.0 0.0 0.00 0.00 0.00 93 1011.5
20260509095718 10 236 0.0 0.0 0.00 0.00 0.00 93 1011.6
20260509095216 10 236 0.0 0.0 0.00 0.00 0.00 94 1011.5
20260509094712 10 236 0.0 0.0 0.00 0.00 0.00 94 1011.6
20260509094209 10 236 0.0 0.0 0.00 0.00 0.00 94 1011.7
20260509093708 10 236 0.0 0.0 0.00 0.00 0.00 94 1011.7
20260509093204 10 236 0.0 0.0 0.00 0.00 0.00 93 1011.5
20260509092702 10 236 0.0 0.0 0.00 0.00 0.00 93 1011.5
20260509092200 10 236 0.0 0.0 0.00 0.00 0.00 93 1011.7
20260509091658 10 236 0.0 0.0 0.00 0.00 0.00 93 1011.7
20260509091154 10 236 0.0 0.0 0.00 0.00 0.00 93 1011.8
20260509090652 10 236 0.0 0.0 0.00 0.00 0.00 92 1011.7
20260509090149 10 235 0.0 0.0 0.00 0.00 0.00 93 1012.0
20260509085647 10 235 0.0 0.0 0.00 0.00 0.00 92 1011.8
20260509085142 10 236 0.0 0.0 0.00 0.00 0.00 93 1011.8
20260509084640 10 236 0.0 0.0 0.00 0.00 0.00 92 1011.8
20260509084137 10 236 0.0 0.0 0.00 0.00 0.00 92 1011.8
20260509083634 10 236 0.0 0.0 0.00 0.00 0.00 92 1011.7
20260509083130 10 236 0.0 0.0 0.00 0.00 0.00 92 1011.9
20260509082628 10 236 0.0 0.0 0.00 0.00 0.00 92 1011.9
20260509082124 10 232 0.0 0.0 0.00 0.00 0.00 91 1012.0
20260509081622 10 219 0.0 0.0 0.00 0.00 0.00 91 1011.9
20260509081119 10 233 0.0 0.0 0.00 0.00 0.00 91 1011.9
20260509080617 10 237 1.6 1.6 0.00 0.00 0.00 91 1012.0
20260509080114 10 233 0.0 0.0 0.00 0.00 0.00 91 1011.7
20260509075612 10 235 0.0 0.0 0.00 0.00 0.00 91 1011.9
20260509075110 11 234 0.0 0.0 0.00 0.00 0.00 91 1011.6
20260509074606 11 232 0.0 0.0 0.00 0.00 0.00 91 1011.6
20260509074103 11 229 0.0 0.0 0.00 0.00 0.00 91 1011.5
20260509073600 11 233 0.0 0.0 0.00 0.00 0.00 91 1011.7
20260509073056 11 234 0.0 0.0 0.00 0.00 0.00 91 1011.7
20260509072553 11 232 0.0 0.0 0.00 0.00 0.00 90 1011.5
20260509072049 11 233 0.0 0.0 0.00 0.00 0.00 91 1011.6